Regional Weather Roundup
Issued by NWS

Home | Current Version | Previous Version | Text Only | Print | Product List | Glossary Off
Versions: 1 2 3 4 5 6 7 8 9 10 11 12 13 14 15 16 17 18 19 20 21 22 23 24 25 26 27 28 29 30 31 32 33 34 35 36 37 38 39 40 41 42 43 44 45 46 47 48 49 50

516
ASUS45 KCYS 241810
RWRWY

WYOMING REGIONAL WEATHER ROUNDUP
NATIONAL WEATHER SERVICE CHEYENNE WY
1200 PM MDT FRI MAR 24 2017

NOTE:  "FAIR" INDICATES FEW OR NO CLOUDS BELOW 12,000 FEET
WITH NO SIGNIFICANT WEATHER AND/OR OBSTRUCTIONS TO VISIBILITY.

WYZ001-241900-
YELLOWSTONE NATIONAL PARK

CITY           SKY/WX    TMP DP  RH WIND       PRES   REMARKS
LK YELLOWSTONE   N/A     38  19  46 VRB5      30.18F WCI  34
6HR MIN TEMP:  14; 6HR MAX TEMP:  38;

W YELLOWSTONE  NOT AVBL

$$
WYZ002>013-054>058-071-098>099-241900-
NORTHERN WYOMING

CITY           SKY/WX    TMP DP  RH WIND       PRES   REMARKS
JACKSON        SUNNY     39  27  60 SW5       30.19F
CODY           FAIR      53  20  27 S15G24    30.10F
GREYBULL       FAIR      53  37  54 SE12      30.12F
6HR MIN TEMP:  30; 6HR MAX TEMP:  53;

WORLAND        FAIR      53  37  54 S9        30.13F
6HR MIN TEMP:  29; 6HR MAX TEMP:  53;

SHERIDAN       FAIR      56  32  40 SE13      30.09F
6HR MIN TEMP:  28; 6HR MAX TEMP:  57;

BUFFALO        FAIR      53  33  46 SE14      30.13F
6HR MIN TEMP:  36; 6HR MAX TEMP:  53;

GILLETTE       FAIR      53  30  41 SE3       30.13S
6HR MIN TEMP:  31; 6HR MAX TEMP:  53;

HULETT         FAIR      52  28  40 E3        30.14F
NEWCASTLE      FAIR      54  19  26 N12G17    30.13F

$$
WYZ014>020-022>026-101>103-241900-
CENTRAL WYOMING

CITY           SKY/WX    TMP DP  RH WIND       PRES   REMARKS
BIG PINEY      FAIR      36  27  69 CALM      30.24S
6HR MIN TEMP:  23; 6HR MAX TEMP:  37;

PINEDALE       FAIR      36  30  80 S6        30.24S WCI  31
DUBOIS         FAIR      41  23  48 CALM      30.16S
LANDER         FAIR      51  30  44 VRB3      30.14S
6HR MIN TEMP:  31; 6HR MAX TEMP:  51;

RIVERTON       FAIR      48  33  56 SE7       30.17S
6HR MIN TEMP:  31; 6HR MAX TEMP:  48;

CASPER         FAIR      50  30  46 SW5       30.16F
6HR MIN TEMP:  27; 6HR MAX TEMP:  51;

DOUGLAS        PTSUNNY   51  27  39 VRB3      30.16S
6HR MIN TEMP:  35; 6HR MAX TEMP:  52;


$$
WYZ021-027>030-104>119-241900-
SOUTHERN WYOMING

CITY           SKY/WX    TMP DP  RH WIND       PRES   REMARKS
EVANSTON       FAIR      38  28  67 SW6       30.23S WCI  33
6HR MIN TEMP:  27; 6HR MAX TEMP:  38;

KEMMERER         N/A     37  23  56 W3        30.24S
FORT BRIDGER   FAIR      44  29  55 SW3       30.25F
ROCK SPRINGS   FAIR      44  32  62 SW5       30.24R
6HR MIN TEMP:  33; 6HR MAX TEMP:  44;

DIXON            N/A     48  25  40 NE5       30.24R
RAWLINS        PTSUNNY   47  23  38 S5        30.21R
6HR MIN TEMP:  33; 6HR MAX TEMP:  47;

SARATOGA       CLOUDY    45  25  45 NW8       30.21R
LARAMIE        PTSUNNY   40  26  57 NW12      30.16S WCI  33
6HR MIN TEMP:  30; 6HR MAX TEMP:  41; 6HR PCP:  0.01;

CHEYENNE       PTSUNNY   45  28  51 N18G41    30.12R
6HR MIN TEMP:  33; 6HR MAX TEMP:  45; 6HR PCP:  0.01;

TORRINGTON     FAIR      55  28  35 N22G29    30.10R
6HR MIN TEMP:  40; 6HR MAX TEMP:  55;

PINE BLUFFS    MOCLDY    45  34  65 N23G35    30.11R

$$




USA.gov is the U.S. government's official web portal to all federal, state and local government web resources and services.